Content
SEND FEEDBACK

Daily
Averages
Monthly
Summary
United States of America

GARDIELD, MONTANA


Home > North America > United States > Montana
Elevation: 2420 feet     Latitude: 47 29N     Longitude: 106 27W

WEATHER
 
SELECT A DAY
Number of Records: 165,313;   Date Range: 1/1/95 - 8/12/14
 
SHARE

PRINT THIS DATA

[ ← Previous Day ]
WEATHER ALMANAC - JANUARY 31, 2013
[ Next Day → ]
[ °C ]   °F
Weather ElementAverageHighLow
Temperature2.5 °F17.1 °F (11:48 pm)-9 °F (3:48 am)
Dewpoint-4.5 °F10.9 °F (11:48 pm)-17 °F (4:48 am)
Humidity72.5 %80 % (8:48 pm)65 % (6:48 am)
Barometer30.34 in30.50 in (8:48 am)30.09 in (11:48 pm)
Wind Speed4.9 mph11.5 mph (2:48 am)
Wind Gust19.6 mph (2:48 am)
Weather ElementAverage
Wind DirectionSSW (186.1 °)

Weather ElementTotal
Precipitation0.02 in
Heating Degree Days61 (Base 65)
Averaged from 23 records on January 31, 2013
WEATHER CONDITIONS BREAKOUT
WIND DIRECTION BREAKOUT
WEATHER BY HOUR - JANUARY 31, 2013
[ °C ]   °F
Local TimeTemperatureDewpointHumidityBarometerVisibilityWind DirectionWind SpeedGust SpeedPrecipitationEventsConditions
1:48 AM-7.1 °F-14.1 °F72 %30.41 inNNW (340°)9.2 mph0.01 in
2:48 AM-8.0 °F-15.0 °F71 %30.43 inNNW (340°)11.5 mph19.6 mph0.01 in
3:48 AM-9.0 °F-16.1 °F71 %30.44 inNorth (360°)8.1 mph
4:48 AM-9.0 °F-17.0 °F68 %30.47 inNorth (360°)4.6 mph
5:48 AM-9.0 °F-17.0 °F68 %30.47 inNorth (360°)6.9 mph
6:48 AM-8.0 °F-17.0 °F65 %30.48 inCalm
7:48 AM-8.0 °F-16.1 °F68 %30.49 inCalm
8:48 AM-7.1 °F-14.1 °F72 %30.50 inSW (230°)3.5 mph
9:48 AM-5.1 °F-11.9 °F72 %30.49 inSSW (210°)4.6 mph
10:48 AM-0.9 °F-9.0 °F69 %30.46 inSouth (170°)5.8 mph
11:48 AM1.0 °F-6.0 °F72 %30.42 inSouth (190°)8.1 mph
12:48 PM3.0 °F-5.1 °F69 %30.38 inSouth (190°)4.6 mph
1:48 PM6.1 °F-2.0 °F69 %30.35 inSouth (190°)6.9 mph
2:48 PM7.0 °F0.0 °F73 %30.32 inSSW (200°)8.1 mph
3:48 PM9.0 °F3.0 °F77 %30.31 inSSW (200°)4.6 mph
4:48 PM10.0 °F3.0 °F73 %30.28 inSSW (210°)4.6 mph
5:48 PM10.9 °F3.9 °F73 %30.25 inSouth (190°)4.6 mph
6:48 PM10.9 °F5.0 °F77 %30.21 inSouth (170°)3.5 mph
7:48 PM10.9 °F5.0 °F77 %30.20 inCalm
8:48 PM12.0 °F7.0 °F80 %30.18 inSE (140°)4.6 mph
9:48 PM15.1 °F9.0 °F77 %30.15 inSSW (200°)4.6 mph
10:48 PM16.0 °F10.0 °F77 %30.11 inCalm
11:48 PM17.1 °F10.9 °F77 %30.09 inNNE (30°)4.6 mph
Hourly data recorded from KJDN, located miles away from Gardield, Montana







STORIES FROM OUR PARTNERS